Weather History for KHZE - October, 2012

Change the Weather History Date:

Saturday, October 27, 2012

  Actual Average (KN60) Record (KN60)
Temperature  
Mean Temperature 26 °F -  
Max Temperature 28 °F 46 °F 66 °F (2005)
Min Temperature 23 °F 26 °F 18 °F (2008)
Degree Days  
Heating Degree Days 40    
Moisture  
Dew Point 23 °F    
Average Humidity 88    
Maximum Humidity 93    
Minimum Humidity 74    
Precipitation  
Precipitation 0.57 in - - ()
Sea Level Pressure  
Sea Level Pressure 30.24 in    
Wind  
Wind Speed 3 mph (East)    
Max Wind Speed 9 mph    
Max Gust Speed -    
Visibility 7 miles    
Events Snow    
Averages and records for this station are not official NWS values.
T = Trace of Precipitation, MM = Missing Value Source: NWS Daily Summary

Daily Weather History Graph

Daily Weather History Graph

Search for Another Location

Airport or City:

Trip Planner

Search our weather history database for the weather conditions in past years. The results will help you decide how hot, cold, wet, or windy it might be!

Date:

Astronomy

Oct. 27, 2012 Rise Set
Actual Time 8:23 AM CDT 6:36 PM CDT
Civil Twilight 7:51 AM CDT 7:08 PM CDT
Nautical Twilight 7:15 AM CDT 7:44 PM CDT
Astronomical Twilight 6:39 AM CDT 8:19 PM CDT
Moon 5:27 PM CDT (10/27) 6:14 AM CDT (10/27)
Length of Visible Light 11h 16m
Length of Day
10h 13m
Waxing Gibbous, 96% of the Moon is Illuminated
Oct 27
Waxing Gibbous
Oct 29
Full
Nov 6
Last Quarter
Nov 13
New
Nov 20
First Quarter

Hourly Weather History & Observations

Time (CDT) Temp. Windchill Dew Point Humidity Pressure Visibility Wind Dir Wind Speed Gust Speed Precip Events Conditions
12:15 AM 23.0 °F - 17.6 °F 80% 30.26 in 10.0 mi Calm Calm - N/A   Overcast
12:35 AM 24.8 °F - 17.6 °F 74% 30.26 in 10.0 mi Calm Calm - N/A   Overcast
12:55 AM 24.8 °F - 17.6 °F 74% 30.26 in 10.0 mi Calm Calm - N/A   Overcast
1:15 AM 24.8 °F - 17.6 °F 74% 30.26 in 9.0 mi Calm Calm - N/A   Mostly Cloudy
1:35 AM 24.8 °F - 17.6 °F 74% 30.26 in 10.0 mi Calm Calm - N/A   Overcast
1:55 AM 24.8 °F - 19.4 °F 80% 30.26 in 9.0 mi Calm Calm - N/A   Overcast
2:15 AM 24.8 °F - 19.4 °F 80% 30.26 in 4.0 mi Calm Calm - N/A Snow Light Snow
2:55 AM 24.8 °F - 21.2 °F 86% 30.26 in 3.0 mi Calm Calm - 0.07 in Snow Light Snow
3:15 AM 24.8 °F - 21.2 °F 86% 30.25 in 4.0 mi Calm Calm - 0.01 in Snow Light Snow
3:35 AM 24.8 °F - 21.2 °F 86% 30.25 in 5.0 mi Calm Calm - 0.03 in Snow Light Snow
3:55 AM 24.8 °F - 21.2 °F 86% 30.25 in 10.0 mi Calm Calm - 0.03 in Snow Light Snow
4:15 AM 23.0 °F - 21.2 °F 93% 30.25 in 10.0 mi Calm Calm - N/A   Overcast
4:35 AM 23.0 °F - 21.2 °F 93% 30.25 in 7.0 mi Calm Calm - N/A Snow Light Snow
4:55 AM 23.0 °F - 21.2 °F 93% 30.24 in 7.0 mi Calm Calm - 0.01 in Snow Light Snow
5:15 AM 23.0 °F - 21.2 °F 93% 30.24 in 8.0 mi Calm Calm - N/A Snow Light Snow
5:35 AM 23.0 °F - 21.2 °F 93% 30.24 in 10.0 mi Calm Calm - N/A   Overcast
5:55 AM 23.0 °F 18.4 °F 21.2 °F 93% 30.24 in 6.0 mi East 3.5 mph - N/A Snow Light Snow
6:15 AM 23.0 °F 18.4 °F 21.2 °F 93% 30.24 in 10.0 mi East 3.5 mph - N/A Snow Light Snow
6:35 AM 24.8 °F 19.1 °F 23.0 °F 93% 30.24 in 9.0 mi East 4.6 mph - N/A   Overcast
6:55 AM 24.8 °F 20.5 °F 23.0 °F 93% 30.24 in 10.0 mi NE 3.5 mph - N/A   Overcast
7:15 AM 24.8 °F 20.5 °F 23.0 °F 93% 30.24 in 6.0 mi ENE 3.5 mph - N/A Snow Light Snow
7:35 AM 24.8 °F 19.1 °F 23.0 °F 93% 30.25 in 3.0 mi ENE 4.6 mph - N/A Snow Light Snow
7:55 AM 24.8 °F 17.9 °F 23.0 °F 93% 30.25 in 5.0 mi ENE 5.8 mph - 0.01 in Snow Light Snow
8:15 AM 24.8 °F 17.9 °F 23.0 °F 93% 30.25 in 5.0 mi East 5.8 mph - N/A Snow Light Snow
8:35 AM 24.8 °F 17.9 °F 23.0 °F 93% 30.25 in 5.0 mi East 5.8 mph - N/A Snow Light Snow
8:55 AM 24.8 °F 17.9 °F 23.0 °F 93% 30.25 in 7.0 mi East 5.8 mph - N/A   Overcast
9:35 AM 24.8 °F 17.9 °F 23.0 °F 93% 30.26 in 2.5 mi East 5.8 mph - N/A Snow Light Snow
10:15 AM 26.6 °F 18.2 °F 23.0 °F 86% 30.26 in 3.0 mi East 8.1 mph - N/A Snow Light Snow
10:55 AM 26.6 °F 17.5 °F 23.0 °F 86% 30.26 in 1.0 mi East 9.2 mph - 0.04 in Snow Light Snow
11:15 AM 26.6 °F 19.1 °F 24.8 °F 93% 30.26 in 0.8 mi East 6.9 mph - 0.07 in Snow Light Snow
11:35 AM 26.6 °F 18.2 °F 24.8 °F 93% 30.25 in 1.0 mi East 8.1 mph - 0.13 in Snow Light Snow
11:55 AM 26.6 °F 19.1 °F 24.8 °F 93% 30.25 in 1.5 mi East 6.9 mph - 0.21 in Snow Light Snow
12:15 PM 26.6 °F 19.1 °F 24.8 °F 93% 30.25 in 3.0 mi ENE 6.9 mph - N/A Snow Light Snow
12:35 PM 26.6 °F 19.1 °F 24.8 °F 93% 30.25 in 7.0 mi ENE 6.9 mph - 0.01 in Snow Light Snow
12:55 PM 26.6 °F 20.0 °F 24.8 °F 93% 30.24 in 1.8 mi ENE 5.8 mph - 0.02 in Snow Light Snow
1:15 PM 26.6 °F 19.1 °F 24.8 °F 93% 30.24 in 1.0 mi ENE 6.9 mph - 0.05 in Snow Light Snow
1:35 PM 28.4 °F 21.2 °F 24.8 °F 86% 30.24 in 1.2 mi ENE 6.9 mph - 0.10 in Snow Light Snow
1:55 PM 28.4 °F 20.4 °F 24.8 °F 86% 30.23 in 1.2 mi ENE 8.1 mph - 0.17 in Snow Light Snow
2:15 PM 28.4 °F 21.2 °F 24.8 °F 86% 30.22 in 3.0 mi East 6.9 mph - N/A Snow Light Snow
2:35 PM 28.4 °F 21.2 °F 24.8 °F 86% 30.22 in 4.0 mi ENE 6.9 mph - 0.01 in Snow Light Snow
2:55 PM 28.4 °F 21.2 °F 24.8 °F 86% 30.22 in 8.0 mi East 6.9 mph - 0.01 in   Mostly Cloudy
3:15 PM 28.4 °F 20.4 °F 24.8 °F 86% 30.21 in 10.0 mi East 8.1 mph - N/A   Overcast
3:35 PM 28.4 °F 21.2 °F 24.8 °F 86% 30.21 in 10.0 mi East 6.9 mph - N/A   Overcast
3:55 PM 28.4 °F 20.4 °F 24.8 °F 86% 30.21 in 10.0 mi East 8.1 mph - N/A   Overcast
4:15 PM 28.4 °F 22.2 °F 23.0 °F 80% 30.21 in 10.0 mi East 5.8 mph - N/A   Overcast
4:35 PM 28.4 °F 20.4 °F 24.8 °F 86% 30.21 in 10.0 mi ENE 8.1 mph - N/A   Overcast
4:55 PM 28.4 °F 21.2 °F 24.8 °F 86% 30.22 in 10.0 mi ENE 6.9 mph - N/A   Overcast
5:15 PM 28.4 °F 22.2 °F 24.8 °F 86% 30.22 in 10.0 mi East 5.8 mph - N/A   Overcast
5:35 PM 28.4 °F 21.2 °F 24.8 °F 86% 30.23 in 10.0 mi ENE 6.9 mph - N/A   Overcast
5:55 PM 28.4 °F 22.2 °F 24.8 °F 86% 30.23 in 10.0 mi ENE 5.8 mph - N/A   Overcast
6:15 PM 28.4 °F 21.2 °F 24.8 °F 86% 30.23 in 10.0 mi ENE 6.9 mph - N/A   Overcast
6:35 PM 28.4 °F 22.2 °F 23.0 °F 80% 30.24 in 10.0 mi ENE 5.8 mph - N/A   Overcast
6:55 PM 28.4 °F 22.2 °F 24.8 °F 86% 30.24 in 10.0 mi NE 5.8 mph - N/A   Overcast
7:15 PM 28.4 °F 22.2 °F 24.8 °F 86% 30.24 in 10.0 mi ENE 5.8 mph - N/A   Overcast
7:35 PM 28.4 °F 22.2 °F 24.8 °F 86% 30.24 in 10.0 mi ENE 5.8 mph - N/A   Overcast
7:55 PM 28.4 °F 21.2 °F 24.8 °F 86% 30.25 in 10.0 mi ENE 6.9 mph - N/A   Overcast
8:15 PM 28.4 °F 22.2 °F 24.8 °F 86% 30.25 in 10.0 mi East 5.8 mph - N/A   Overcast
8:35 PM 26.6 °F 20.0 °F 24.8 °F 93% 30.25 in 10.0 mi East 5.8 mph - N/A   Overcast
8:55 PM 26.6 °F 19.1 °F 24.8 °F 93% 30.25 in 10.0 mi East 6.9 mph - N/A   Overcast
9:15 PM 26.6 °F 20.0 °F 24.8 °F 93% 30.26 in 10.0 mi East 5.8 mph - N/A   Overcast
9:35 PM 26.6 °F 21.2 °F 24.8 °F 93% 30.26 in 10.0 mi East 4.6 mph - N/A   Overcast
9:55 PM 26.6 °F 21.2 °F 23.0 °F 86% 30.26 in 10.0 mi ESE 4.6 mph - N/A   Overcast
10:15 PM 26.6 °F 21.2 °F 23.0 °F 86% 30.26 in 10.0 mi ESE 4.6 mph - N/A   Overcast
10:35 PM 26.6 °F 20.0 °F 23.0 °F 86% 30.26 in 10.0 mi ESE 5.8 mph - N/A   Overcast
10:55 PM 26.6 °F 21.2 °F 23.0 °F 86% 30.26 in 10.0 mi ESE 4.6 mph - N/A   Overcast
11:15 PM 26.6 °F - 23.0 °F 86% 30.26 in 10.0 mi Calm Calm - N/A   Overcast
11:35 PM 26.6 °F 22.6 °F 23.0 °F 86% 30.26 in 10.0 mi East 3.5 mph - N/A   Overcast
11:55 PM 26.6 °F 21.2 °F 23.0 °F 86% 30.26 in 10.0 mi East 4.6 mph - N/A   Overcast